Location: Risskov
(56.1972°N, 10.2480°E)
Time: 13:25:30
(UTC+00:00)

Cosmos 2333 Rocket - Pass Details

Date: 05 July 2020
Orbit: 837 x 864 km, 70.8° (Epoch: 06 August)

Event Time Altitude Azimuth Distance (km) Brightness Sun altitude
Rises 22:25:53 0° 230° (SW) 3,405 5.1 -10.2°
Reaches altitude 10° 22:28:22 10° 235° (SW) 2,476 4.4 -10.3°
Maximum altitude 22:33:58 56° 313° (NW) 1,013 3.0 -10.4°
Drops below altitude 10° 22:39:39 10° 32° (NNE) 2,507 5.4 -10.6°
Sets 22:42:11 0° 37° (NE) 3,450 6.1 -10.6°
